QPF
0.01 0.01 0.01 0.02 0.03 0.04 0.08 0.11 0.14 0.12 0.09 0.06 0.06 0.06 0.04 0.03 0.03 0.03 0.02 0.01 0.02 0.02 0.02 0.02 0.03 0.03 0.04 0.05 0.05 0.04 0.05 0.04 0.04 0.04 0.04 0.04 0.03 0.03 0.03 0.03 0.03 0.03 0.02
0.01 0.01 0.02 0.02 0.03 0.04 0.05 0.10 0.18 0.16 0.12 0.09 0.10 0.11 0.09 0.06 0.05 0.04 0.02 0.03 0.02 0.03 0.03 0.03 0.03 0.03 0.03 0.04 0.04 0.04 0.05 0.05 0.04 0.05 0.04 0.02 0.04 0.03 0.02 0.01 0.02 0.03 0.02
0.01 0.01 0.01 0.01 0.02 0.02 0.03 0.04 0.06 0.09 0.09 0.10 0.11 0.11 0.10 0.08 0.05 0.04 0.04 0.04 0.05 0.06 0.04 0.04 0.03 0.04 0.04 0.06 0.06 0.07 0.07 0.06 0.04 0.03 0.03 0.02 0.01 0.01 0.01 0.01 0.01 0.02 0.02
0.01 0.01 0.01 0.01 0.02 0.03 0.04 0.05 0.05 0.07 0.09 0.10 0.07 0.06 0.06 0.04 0.03 0.03 0.03 0.03 0.05 0.07 0.07 0.06 0.05 0.04 0.04 0.05 0.05 0.05 0.06 0.05 0.04 0.04 0.03 0.02 0.01 0.01 0.01 0.00 0.01 0.01 0.02
0.01 0.01 0.00 0.01 0.02 0.06 0.06 0.07 0.08 0.09 0.10 0.10 0.07 0.05 0.05 0.05 0.04 0.04 0.03 0.02 0.04 0.05 0.06 0.07 0.06 0.04 0.03 0.03 0.04 0.04 0.05 0.05 0.04 0.04 0.03 0.02 0.01 0.01 0.00 0.00 0.01 0.01 0.01
0.01 0.01 0.01 0.02 0.04 0.07 0.09 0.10 0.12 0.10 0.10 0.09 0.07 0.05 0.05 0.06 0.05 0.03 0.02 0.02 0.03 0.04 0.05 0.06 0.04 0.04 0.03 0.02 0.04 0.04 0.05 0.04 0.04 0.03 0.02 0.02 0.01 0.00 0.01 0.01 0.00 0.01 0.01
0.02 0.03 0.04 0.04 0.04 0.07 0.09 0.09 0.14 0.11 0.09 0.09 0.07 0.05 0.04 0.05 0.04 0.03 0.02 0.02 0.03 0.03 0.05 0.06 0.06 0.06 0.05 0.05 0.05 0.05 0.03 0.03 0.03 0.02 0.01 0.01 0.01 0.01 0.01 0.01 0.01 0.01 0.01
0.03 0.06 0.07 0.05 0.06 0.07 0.08 0.09 0.12 0.11 0.09 0.09 0.08 0.07 0.06 0.05 0.04 0.03 0.02 0.03 0.03 0.05 0.07 0.06 0.06 0.06 0.07 0.07 0.06 0.04 0.04 0.03 0.02 0.02 0.02 0.01 0.02 0.02 0.02 0.02 0.01 0.01 0.01
0.03 0.05 0.07 0.05 0.05 0.05 0.06 0.08 0.10 0.11 0.11 0.11 0.12 0.11 0.09 0.07 0.07 0.06 0.04 0.04 0.04 0.05 0.05 0.05 0.05 0.05 0.06 0.07 0.06 0.05 0.04 0.04 0.02 0.02 0.02 0.01 0.02 0.02 0.03 0.03 0.01 0.01 0.01
0.02 0.03 0.04 0.05 0.04 0.04 0.04 0.06 0.09 0.12 0.14 0.14 0.13 0.12 0.11 0.10 0.10 0.08 0.06 0.06 0.05 0.06 0.05 0.04 0.04 0.04 0.04 0.06 0.06 0.05 0.04 0.04 0.03 0.03 0.02 0.02 0.02 0.02 0.02 0.02 0.02 0.01 0.01
0.01 0.02 0.04 0.05 0.05 0.05 0.04 0.06 0.11 0.16 0.16 0.13 0.11 0.12 0.10 0.10 0.10 0.07 0.06 0.05 0.04 0.05 0.06 0.06 0.05 0.05 0.05 0.06 0.05 0.04 0.04 0.03 0.04 0.04 0.03 0.03 0.03 0.02 0.02 0.02 0.02 0.02 0.02
0.02 0.03 0.03 0.03 0.04 0.05 0.05 0.07 0.09 0.09 0.10 0.11 0.09 0.10 0.14 0.15 0.11 0.07 0.05 0.04 0.04 0.05 0.05 0.05 0.04 0.04 0.05 0.06 0.05 0.04 0.03 0.02 0.02 0.04 0.03 0.03 0.03 0.02 0.01 0.01 0.01 0.02 0.03
0.03 0.03 0.02 0.03 0.04 0.04 0.06 0.07 0.06 0.06 0.06 0.07 0.08 0.11 0.11 0.12 0.09 0.07 0.06 0.06 0.05 0.04 0.04 0.05 0.05 0.05 0.06 0.06 0.06 0.04 0.03 0.02 0.02 0.03 0.03 0.03 0.03 0.03 0.02 0.01 0.01 0.02 0.02
0.02 0.02 0.02 0.04 0.06 0.05 0.05 0.04 0.04 0.04 0.05 0.06 0.08 0.08 0.08 0.08 0.07 0.07 0.07 0.06 0.05 0.04 0.04 0.05 0.05 0.05 0.05 0.05 0.04 0.04 0.04 0.03 0.04 0.04 0.04 0.04 0.03 0.03 0.02 0.02 0.02 0.02 0.03
0.03 0.02 0.03 0.05 0.06 0.05 0.05 0.04 0.04 0.04 0.04 0.05 0.06 0.06 0.06 0.07 0.06 0.05 0.05 0.05 0.04 0.04 0.05 0.06 0.05 0.05 0.04 0.04 0.05 0.05 0.05 0.06 0.06 0.05 0.04 0.04 0.03 0.03 0.04 0.03 0.03 0.04 0.05
0.03 0.03 0.03 0.04 0.05 0.05 0.04 0.04 0.04 0.05 0.04 0.05 0.06 0.06 0.05 0.06 0.06 0.04 0.05 0.04 0.03 0.03 0.04 0.05 0.06 0.06 0.06 0.07 0.08 0.09 0.08 0.07 0.06 0.05 0.05 0.05 0.04 0.04 0.04 0.04 0.05 0.07 0.07
0.04 0.04 0.04 0.05 0.06 0.06 0.06 0.05 0.05 0.05 0.04 0.05 0.07 0.08 0.06 0.04 0.03 0.04 0.04 0.04 0.04 0.04 0.04 0.05 0.05 0.05 0.06 0.09 0.10 0.12 0.11 0.10 0.09 0.07 0.08 0.07 0.06 0.07 0.05 0.05 0.06 0.06 0.06
0.05 0.05 0.06 0.07 0.10 0.11 0.09 0.07 0.06 0.06 0.05 0.06 0.08 0.07 0.05 0.03 0.03 0.03 0.04 0.04 0.04 0.04 0.04 0.04 0.05 0.05 0.05 0.08 0.12 0.14 0.12 0.10 0.10 0.09 0.09 0.09 0.08 0.09 0.07 0.06 0.05 0.05 0.05
0.06 0.07 0.08 0.09 0.13 0.14 0.13 0.09 0.08 0.07 0.06 0.06 0.08 0.07 0.06 0.04 0.04 0.04 0.04 0.03 0.04 0.04 0.05 0.05 0.07 0.07 0.09 0.15 0.19 0.19 0.17 0.14 0.13 0.13 0.11 0.08 0.06 0.08 0.08 0.07 0.07 0.07 0.07
0.05 0.05 0.05 0.06 0.10 0.12 0.10 0.08 0.08 0.07 0.06 0.06 0.07 0.06 0.06 0.06 0.04 0.04 0.04 0.04 0.04 0.05 0.09 0.12 0.13 0.13 0.14 0.20 0.25 0.25 0.21 0.17 0.15 0.13 0.11 0.10 0.08 0.08 0.10 0.08 0.07 0.06 0.05
0.05 0.03 0.03 0.04 0.06 0.07 0.08 0.08 0.06 0.05 0.06 0.07 0.07 0.05 0.05 0.06 0.06 0.07 0.07 0.06 0.05 0.06 0.08 0.09 0.12 0.15 0.16 0.15 0.16 0.20 0.18 0.15 0.14 0.11 0.09 0.08 0.07 0.07 0.08 0.08 0.06 0.05 0.05
0.05 0.03 0.03 0.04 0.04 0.05 0.06 0.05 0.05 0.05 0.05 0.05 0.05 0.04 0.04 0.05 0.06 0.07 0.08 0.07 0.05 0.06 0.07 0.06 0.09 0.15 0.18 0.17 0.15 0.17 0.17 0.15 0.13 0.13 0.09 0.07 0.07 0.06 0.06 0.05 0.06 0.07 0.08
0.02 0.03 0.04 0.05 0.07 0.06 0.06 0.07 0.05 0.04 0.04 0.04 0.03 0.03 0.04 0.05 0.06 0.08 0.09 0.08 0.07 0.06 0.06 0.06 0.07 0.09 0.11 0.13 0.13 0.12 0.13 0.13 0.11 0.11 0.11 0.10 0.08 0.06 0.05 0.06 0.06 0.06 0.05
0.02 0.03 0.03 0.06 0.08 0.10 0.08 0.09 0.07 0.06 0.05 0.05 0.05 0.04 0.04 0.04 0.05 0.08 0.08 0.08 0.07 0.08 0.07 0.06 0.07 0.08 0.10 0.10 0.10 0.10 0.10 0.11 0.11 0.12 0.12 0.11 0.11 0.09 0.07 0.06 0.05 0.05 0.04
0.02 0.03 0.03 0.04 0.07 0.08 0.07 0.07 0.07 0.06 0.04 0.04 0.05 0.06 0.07 0.07 0.06 0.06 0.05 0.05 0.05 0.05 0.06 0.06 0.06 0.07 0.07 0.07 0.06 0.06 0.08 0.08 0.09 0.10 0.09 0.08 0.07 0.07 0.05 0.04 0.03 0.03 0.03
0.04 0.04 0.04 0.03 0.04 0.05 0.05 0.05 0.06 0.07 0.05 0.06 0.07 0.08 0.09 0.08 0.07 0.06 0.05 0.05 0.04 0.04 0.04 0.05 0.05 0.05 0.05 0.05 0.04 0.05 0.06 0.06 0.07 0.06 0.07 0.07 0.05 0.04 0.02 0.02 0.02 0.02 0.02
MSLP
1010.93 1011.01 1011.12 1011.26 1011.44 1011.64 1011.87 1012.13 1012.42 1012.73 1013.05 1013.37 1013.66 1013.92 1014.15 1014.33 1014.48 1014.61 1014.74 1014.87 1015.02 1015.20 1015.41 1015.66 1015.93 1016.22 1016.53 1016.84 1017.14 1017.43 1017.70 1017.93 1018.12 1018.27 1018.36 1018.41 1018.41 1018.38 1018.32 1018.25 1018.19 1018.14 1018.12
1010.58 1010.58 1010.63 1010.73 1010.88 1011.07 1011.31 1011.61 1011.94 1012.32 1012.70 1013.08 1013.42 1013.71 1013.94 1014.10 1014.20 1014.28 1014.35 1014.43 1014.55 1014.73 1014.96 1015.25 1015.58 1015.93 1016.30 1016.65 1016.99 1017.30 1017.58 1017.82 1018.02 1018.18 1018.30 1018.36 1018.38 1018.36 1018.29 1018.20 1018.10 1017.99 1017.91
1010.20 1010.11 1010.10 1010.16 1010.30 1010.49 1010.76 1011.10 1011.49 1011.93 1012.38 1012.81 1013.19 1013.50 1013.72 1013.85 1013.90 1013.92 1013.93 1013.98 1014.08 1014.25 1014.51 1014.84 1015.23 1015.64 1016.06 1016.46 1016.83 1017.16 1017.46 1017.71 1017.92 1018.10 1018.24 1018.34 1018.38 1018.37 1018.31 1018.20 1018.06 1017.90 1017.74
1009.84 1009.67 1009.60 1009.64 1009.77 1009.99 1010.29 1010.67 1011.12 1011.62 1012.12 1012.58 1012.99 1013.29 1013.49 1013.57 1013.58 1013.54 1013.50 1013.50 1013.59 1013.77 1014.06 1014.43 1014.87 1015.34 1015.81 1016.25 1016.66 1017.02 1017.33 1017.60 1017.84 1018.05 1018.22 1018.35 1018.43 1018.44 1018.39 1018.27 1018.10 1017.88 1017.65
1009.54 1009.31 1009.21 1009.24 1009.38 1009.63 1009.96 1010.39 1010.88 1011.41 1011.93 1012.41 1012.81 1013.09 1013.24 1013.28 1013.23 1013.13 1013.05 1013.03 1013.10 1013.29 1013.61 1014.03 1014.51 1015.03 1015.55 1016.03 1016.47 1016.86 1017.19 1017.49 1017.76 1018.00 1018.22 1018.39 1018.51 1018.56 1018.53 1018.41 1018.22 1017.96 1017.68
1009.35 1009.09 1008.99 1009.03 1009.19 1009.46 1009.83 1010.28 1010.79 1011.33 1011.85 1012.31 1012.67 1012.90 1013.00 1012.98 1012.87 1012.73 1012.61 1012.56 1012.63 1012.84 1013.18 1013.63 1014.16 1014.72 1015.28 1015.80 1016.26 1016.67 1017.03 1017.36 1017.66 1017.94 1018.20 1018.42 1018.59 1018.68 1018.68 1018.58 1018.38 1018.11 1017.78
1009.30 1009.04 1008.96 1009.03 1009.22 1009.51 1009.90 1010.36 1010.87 1011.38 1011.87 1012.28 1012.59 1012.76 1012.79 1012.71 1012.54 1012.36 1012.21 1012.15 1012.22 1012.44 1012.80 1013.28 1013.84 1014.42 1015.00 1015.54 1016.02 1016.45 1016.83 1017.18 1017.51 1017.82 1018.12 1018.38 1018.60 1018.73 1018.77 1018.70 1018.52 1018.25 1017.92
1009.39 1009.17 1009.13 1009.23 1009.45 1009.77 1010.16 1010.61 1011.09 1011.56 1012.00 1012.35 1012.58 1012.68 1012.65 1012.51 1012.30 1012.08 1011.91 1011.85 1011.92 1012.14 1012.51 1013.00 1013.57 1014.16 1014.74 1015.28 1015.76 1016.19 1016.57 1016.92 1017.26 1017.59 1017.92 1018.21 1018.46 1018.64 1018.72 1018.69 1018.55 1018.32 1018.01
1009.63 1009.46 1009.47 1009.61 1009.86 1010.18 1010.57 1010.99 1011.43 1011.85 1012.22 1012.50 1012.67 1012.71 1012.62 1012.44 1012.20 1011.96 1011.78 1011.71 1011.78 1012.01 1012.37 1012.85 1013.40 1013.97 1014.53 1015.04 1015.50 1015.90 1016.26 1016.59 1016.92 1017.24 1017.56 1017.87 1018.14 1018.34 1018.46 1018.48 1018.40 1018.22 1017.96
1009.97 1009.87 1009.93 1010.10 1010.36 1010.68 1011.05 1011.44 1011.83 1012.20 1012.52 1012.75 1012.87 1012.86 1012.75 1012.54 1012.29 1012.05 1011.88 1011.81 1011.87 1012.09 1012.43 1012.88 1013.39 1013.92 1014.42 1014.88 1015.28 1015.63 1015.93 1016.22 1016.50 1016.78 1017.08 1017.36 1017.62 1017.84 1017.99 1018.05 1018.03 1017.91 1017.73
1010.37 1010.34 1010.44 1010.64 1010.90 1011.21 1011.55 1011.91 1012.28 1012.61 1012.89 1013.09 1013.19 1013.18 1013.06 1012.86 1012.63 1012.40 1012.23 1012.17 1012.23 1012.42 1012.74 1013.14 1013.59 1014.05 1014.47 1014.85 1015.17 1015.43 1015.65 1015.86 1016.06 1016.28 1016.51 1016.74 1016.96 1017.16 1017.32 1017.41 1017.44 1017.39 1017.28
1010.82 1010.85 1010.98 1011.18 1011.44 1011.73 1012.06 1012.40 1012.74 1013.07 1013.34 1013.55 1013.66 1013.66 1013.57 1013.41 1013.20 1013.01 1012.87 1012.81 1012.87 1013.04 1013.31 1013.65 1014.02 1014.39 1014.72 1015.00 1015.21 1015.37 1015.49 1015.59 1015.70 1015.81 1015.95 1016.11 1016.27 1016.42 1016.56 1016.65 1016.70 1016.71 1016.66
1011.30 1011.37 1011.52 1011.72 1011.97 1012.25 1012.56 1012.90 1013.25 1013.59 1013.89 1014.13 1014.28 1014.33 1014.29 1014.17 1014.02 1013.87 1013.76 1013.72 1013.77 1013.91 1014.13 1014.40 1014.69 1014.96 1015.19 1015.35 1015.45 1015.50 1015.50 1015.49 1015.48 1015.49 1015.52 1015.58 1015.66 1015.74 1015.82 1015.89 1015.94 1015.95 1015.94
1011.81 1011.92 1012.08 1012.29 1012.52 1012.80 1013.12 1013.47 1013.85 1014.22 1014.57 1014.85 1015.06 1015.17 1015.20 1015.14 1015.05 1014.94 1014.86 1014.84 1014.89 1015.00 1015.17 1015.38 1015.58 1015.75 1015.87 1015.92 1015.91 1015.84 1015.73 1015.61 1015.49 1015.39 1015.32 1015.27 1015.25 1015.25 1015.25 1015.26 1015.26 1015.25 1015.23
1012.37 1012.52 1012.70 1012.91 1013.15 1013.44 1013.78 1014.16 1014.58 1015.00 1015.40 1015.75 1016.01 1016.19 1016.27 1016.28 1016.23 1016.18 1016.13 1016.12 1016.17 1016.26 1016.38 1016.52 1016.64 1016.72 1016.74 1016.68 1016.57 1016.40 1016.19 1015.97 1015.76 1015.56 1015.40 1015.26 1015.14 1015.04 1014.95 1014.87 1014.79 1014.72 1014.64
1013.00 1013.19 1013.40 1013.64 1013.91 1014.23 1014.60 1015.03 1015.50 1015.97 1016.42 1016.81 1017.13 1017.35 1017.48 1017.53 1017.53 1017.51 1017.49 1017.50 1017.54 1017.61 1017.69 1017.77 1017.82 1017.82 1017.75 1017.60 1017.40 1017.14 1016.86 1016.57 1016.29 1016.02 1015.78 1015.57 1015.36 1015.17 1014.99 1014.80 1014.62 1014.43 1014.26
1013.71 1013.96 1014.22 1014.50 1014.82 1015.20 1015.63 1016.11 1016.62 1017.13 1017.62 1018.04 1018.38 1018.62 1018.78 1018.85 1018.88 1018.88 1018.88 1018.89 1018.93 1018.99 1019.04 1019.07 1019.06 1018.98 1018.84 1018.62 1018.35 1018.03 1017.70 1017.36 1017.04 1016.73 1016.45 1016.18 1015.91 1015.64 1015.36 1015.07 1014.76 1014.45 1014.14
1014.50 1014.83 1015.17 1015.52 1015.92 1016.36 1016.85 1017.38 1017.93 1018.47 1018.96 1019.39 1019.72 1019.96 1020.11 1020.18 1020.21 1020.22 1020.23 1020.25 1020.29 1020.33 1020.35 1020.35 1020.28 1020.15 1019.95 1019.68 1019.36 1019.01 1018.65 1018.29 1017.95 1017.64 1017.33 1017.04 1016.73 1016.40 1016.04 1015.64 1015.22 1014.77 1014.32
1015.37 1015.79 1016.22 1016.67 1017.15 1017.67 1018.22 1018.80 1019.37 1019.91 1020.39 1020.79 1021.09 1021.29 1021.41 1021.47 1021.49 1021.49 1021.50 1021.53 1021.56 1021.59 1021.60 1021.56 1021.46 1021.28 1021.04 1020.73 1020.38 1020.01 1019.64 1019.28 1018.95 1018.64 1018.34 1018.04 1017.71 1017.34 1016.92 1016.44 1015.92 1015.35 1014.77
1016.28 1016.81 1017.34 1017.89 1018.46 1019.05 1019.66 1020.27 1020.85 1021.37 1021.81 1022.16 1022.40 1022.55 1022.63 1022.66 1022.65 1022.65 1022.66 1022.68 1022.72 1022.74 1022.73 1022.67 1022.55 1022.34 1022.07 1021.74 1021.37 1020.99 1020.62 1020.27 1019.96 1019.67 1019.38 1019.08 1018.75 1018.36 1017.90 1017.36 1016.75 1016.10 1015.41
1017.23 1017.85 1018.48 1019.12 1019.78 1020.44 1021.09 1021.71 1022.27 1022.76 1023.14 1023.42 1023.60 1023.70 1023.72 1023.71 1023.69 1023.68 1023.69 1023.71 1023.75 1023.77 1023.75 1023.68 1023.53 1023.31 1023.01 1022.67 1022.30 1021.92 1021.56 1021.22 1020.92 1020.65 1020.38 1020.08 1019.75 1019.34 1018.86 1018.28 1017.63 1016.92 1016.17
1018.18 1018.88 1019.59 1020.31 1021.03 1021.73 1022.40 1023.02 1023.55 1023.99 1024.31 1024.52 1024.64 1024.68 1024.66 1024.62 1024.59 1024.57 1024.58 1024.61 1024.65 1024.66 1024.64 1024.56 1024.40 1024.17 1023.87 1023.52 1023.15 1022.77 1022.42 1022.10 1021.81 1021.54 1021.27 1020.98 1020.63 1020.22 1019.72 1019.13 1018.46 1017.72 1016.95
1019.12 1019.88 1020.65 1021.41 1022.17 1022.89 1023.55 1024.14 1024.63 1025.01 1025.27 1025.42 1025.49 1025.48 1025.44 1025.38 1025.34 1025.33 1025.35 1025.38 1025.42 1025.44 1025.42 1025.32 1025.16 1024.92 1024.62 1024.28 1023.91 1023.55 1023.20 1022.88 1022.59 1022.31 1022.03 1021.72 1021.36 1020.93 1020.42 1019.82 1019.16 1018.43 1017.67
1020.06 1020.84 1021.62 1022.40 1023.16 1023.87 1024.51 1025.05 1025.49 1025.81 1026.02 1026.13 1026.15 1026.12 1026.07 1026.02 1025.99 1025.98 1026.01 1026.05 1026.09 1026.11 1026.07 1025.98 1025.81 1025.57 1025.28 1024.94 1024.59 1024.23 1023.89 1023.57 1023.27 1022.97 1022.66 1022.32 1021.93 1021.47 1020.95 1020.35 1019.70 1019.00 1018.28
1020.97 1021.74 1022.52 1023.28 1024.01 1024.68 1025.27 1025.76 1026.14 1026.41 1026.58 1026.65 1026.66 1026.64 1026.59 1026.56 1026.54 1026.56 1026.59 1026.64 1026.67 1026.67 1026.63 1026.52 1026.35 1026.11 1025.83 1025.50 1025.16 1024.81 1024.48 1024.15 1023.82 1023.49 1023.14 1022.76 1022.34 1021.86 1021.32 1020.73 1020.10 1019.43 1018.76
1021.87 1022.61 1023.35 1024.06 1024.74 1025.35 1025.87 1026.30 1026.63 1026.85 1026.99 1027.06 1027.07 1027.06 1027.05 1027.04 1027.05 1027.08 1027.12 1027.16 1027.18 1027.16 1027.10 1026.97 1026.78 1026.55 1026.26 1025.95 1025.62 1025.28 1024.94 1024.60 1024.25 1023.89 1023.50 1023.08 1022.62 1022.11 1021.56 1020.98 1020.37 1019.75 1019.12
Thickness
5790 5788 5787 5785 5781 5777 5773 5770 5766 5764 5761 5757 5754 5751 5749 5750 5750 5749 5748 5747 5746 5744 5742 5740 5738 5737 5736 5735 5734 5732 5730 5728 5728 5726 5724 5725 5727 5727 5727 5726 5725 5725 5724
5785 5786 5786 5784 5782 5778 5774 5771 5768 5765 5762 5760 5757 5754 5752 5750 5750 5748 5747 5746 5745 5743 5741 5739 5737 5736 5734 5733 5732 5731 5728 5726 5726 5723 5719 5716 5719 5723 5726 5725 5725 5724 5723
5787 5787 5786 5785 5782 5779 5776 5774 5770 5766 5763 5760 5756 5753 5750 5748 5747 5746 5745 5745 5743 5742 5740 5739 5737 5735 5733 5731 5731 5730 5727 5724 5723 5723 5720 5713 5711 5716 5721 5723 5723 5723 5723
5792 5790 5788 5786 5785 5782 5779 5776 5771 5767 5764 5760 5756 5752 5749 5746 5747 5747 5745 5744 5743 5741 5739 5738 5736 5734 5733 5731 5730 5729 5727 5724 5721 5721 5721 5719 5718 5714 5713 5718 5720 5722 5722
5796 5794 5793 5791 5788 5784 5780 5776 5771 5767 5764 5762 5759 5755 5751 5749 5747 5746 5744 5743 5742 5741 5739 5737 5735 5734 5732 5731 5730 5728 5727 5725 5723 5721 5719 5718 5716 5716 5712 5711 5715 5718 5721
5797 5796 5795 5792 5787 5784 5780 5775 5770 5767 5765 5761 5759 5756 5752 5749 5746 5744 5742 5741 5740 5739 5738 5737 5735 5734 5732 5731 5730 5728 5726 5725 5723 5722 5721 5719 5717 5715 5713 5710 5711 5713 5718
5796 5794 5792 5789 5786 5782 5779 5775 5770 5766 5765 5761 5759 5757 5754 5751 5748 5746 5743 5741 5739 5739 5738 5737 5735 5733 5732 5730 5729 5727 5726 5725 5723 5722 5721 5721 5720 5719 5716 5712 5711 5711 5714
5796 5795 5793 5790 5786 5781 5778 5774 5770 5767 5765 5762 5759 5757 5754 5752 5749 5747 5745 5743 5741 5741 5739 5737 5736 5734 5732 5730 5729 5727 5726 5725 5723 5723 5721 5720 5720 5719 5717 5714 5711 5708 5709
5794 5793 5792 5790 5786 5781 5778 5775 5770 5766 5765 5762 5758 5755 5753 5751 5749 5747 5745 5744 5742 5741 5739 5738 5736 5734 5732 5730 5729 5727 5726 5725 5723 5722 5721 5720 5720 5719 5718 5716 5714 5710 5706
5791 5791 5790 5790 5787 5783 5780 5775 5771 5768 5765 5761 5758 5755 5753 5751 5749 5746 5744 5743 5742 5740 5739 5737 5736 5734 5732 5730 5728 5727 5726 5724 5723 5721 5720 5719 5719 5718 5717 5715 5714 5712 5709
5787 5787 5788 5787 5786 5783 5779 5775 5771 5767 5764 5761 5759 5756 5754 5751 5748 5745 5744 5743 5741 5740 5738 5737 5735 5734 5732 5731 5728 5727 5725 5723 5722 5720 5719 5718 5718 5716 5715 5714 5713 5711 5709
5786 5785 5785 5784 5782 5779 5776 5772 5769 5766 5764 5761 5758 5756 5753 5750 5747 5745 5743 5742 5740 5739 5738 5737 5735 5733 5732 5730 5728 5726 5725 5723 5721 5720 5718 5717 5716 5714 5713 5712 5711 5710 5709
5782 5782 5781 5780 5778 5776 5773 5770 5767 5765 5763 5760 5757 5754 5752 5749 5747 5745 5743 5741 5739 5737 5736 5736 5734 5733 5731 5730 5728 5726 5725 5723 5721 5720 5718 5716 5714 5712 5711 5710 5710 5709 5708
5777 5777 5776 5776 5775 5773 5770 5768 5766 5764 5761 5758 5755 5752 5751 5749 5747 5744 5742 5740 5738 5736 5735 5734 5733 5732 5730 5729 5727 5725 5724 5722 5720 5719 5717 5715 5714 5712 5710 5709 5708 5706 5704
5772 5772 5772 5771 5769 5767 5766 5765 5763 5761 5760 5756 5752 5750 5749 5747 5745 5743 5741 5738 5736 5735 5734 5732 5731 5729 5728 5727 5725 5724 5722 5720 5718 5717 5716 5715 5713 5712 5710 5708 5706 5704 5701
5768 5769 5769 5768 5766 5765 5763 5761 5759 5757 5756 5753 5750 5748 5746 5744 5741 5740 5738 5736 5734 5732 5731 5729 5728 5727 5726 5726 5724 5722 5720 5718 5716 5714 5713 5712 5711 5709 5707 5706 5704 5702 5699
5765 5765 5765 5764 5763 5762 5760 5757 5756 5754 5751 5749 5746 5744 5742 5740 5738 5737 5735 5733 5731 5729 5726 5725 5724 5723 5723 5722 5721 5719 5717 5715 5713 5712 5710 5709 5708 5706 5704 5702 5700 5698 5696
5760 5761 5761 5761 5759 5757 5755 5753 5751 5748 5745 5743 5741 5740 5738 5737 5735 5733 5731 5729 5728 5725 5723 5721 5720 5719 5719 5718 5717 5715 5713 5711 5709 5707 5705 5704 5702 5701 5699 5697 5694 5692 5691
5757 5757 5758 5757 5754 5752 5750 5747 5745 5742 5740 5738 5736 5735 5734 5732 5730 5728 5727 5725 5723 5721 5718 5716 5715 5714 5713 5713 5711 5710 5708 5705 5703 5701 5699 5698 5697 5695 5693 5690 5687 5685 5683
5751 5751 5751 5750 5748 5746 5744 5741 5738 5736 5734 5733 5732 5731 5730 5728 5725 5724 5723 5721 5719 5717 5714 5712 5710 5709 5708 5707 5705 5703 5702 5699 5696 5693 5692 5690 5689 5687 5685 5683 5680 5677 5675
5743 5744 5743 5742 5741 5740 5738 5734 5733 5729 5728 5728 5727 5726 5724 5722 5720 5719 5717 5715 5713 5711 5708 5706 5705 5704 5702 5701 5699 5697 5695 5693 5689 5686 5683 5681 5680 5678 5676 5674 5672 5670 5668
5734 5735 5734 5733 5733 5733 5731 5728 5725 5724 5723 5722 5720 5718 5717 5716 5714 5712 5711 5709 5707 5704 5701 5699 5697 5696 5695 5693 5692 5690 5688 5686 5683 5678 5675 5672 5671 5669 5666 5664 5663 5661 5659
5725 5726 5726 5724 5724 5724 5723 5720 5718 5717 5716 5715 5713 5711 5709 5708 5707 5705 5703 5701 5699 5697 5695 5692 5690 5688 5687 5685 5683 5681 5679 5677 5674 5670 5666 5663 5661 5658 5656 5653 5652 5650 5648
5716 5717 5717 5716 5715 5716 5716 5714 5713 5712 5710 5707 5705 5704 5702 5699 5698 5697 5695 5693 5691 5689 5687 5685 5682 5679 5677 5676 5674 5672 5670 5667 5664 5660 5657 5653 5651 5648 5644 5642 5640 5638 5635
5707 5708 5708 5708 5708 5709 5709 5708 5707 5706 5703 5700 5698 5696 5694 5692 5689 5686 5683 5682 5681 5681 5679 5677 5674 5671 5668 5665 5664 5664 5661 5658 5655 5651 5647 5643 5640 5636 5632 5629 5626 5624 5622
5698 5699 5699 5700 5700 5701 5701 5701 5701 5699 5697 5693 5691 5688 5685 5683 5681 5677 5673 5670 5670 5669 5668 5667 5665 5661 5658 5656 5654 5652 5649 5646 5644 5641 5635 5630 5626 5623 5619 5616 5613 5611 5608